TimePDT,TemperatureF,Dew PointF,Humidity,Sea Level PressureIn,VisibilityMPH,Wind Direction,Wind SpeedMPH,Gust SpeedMPH,PrecipitationIn,Events,Conditions,WindDirDegrees,DateUTC
12:56 AM,79.0,41.0,26,29.66,10.0,West,8.1,-,N/A,,Clear,270,2013-10-03 07:56:00
1:56 AM,77.0,42.1,29,29.66,10.0,West,9.2,-,N/A,,Clear,260,2013-10-03 08:56:00
2:56 AM,78.1,44.1,30,29.65,10.0,WSW,6.9,-,N/A,,Clear,250,2013-10-03 09:56:00
3:56 AM,75.0,44.1,33,29.65,10.0,WSW,10.4,-,N/A,,Clear,250,2013-10-03 10:56:00
4:56 AM,75.9,44.1,32,29.65,10.0,WSW,12.7,-,N/A,,Clear,240,2013-10-03 11:56:00
5:56 AM,75.0,44.1,33,29.65,10.0,SW,6.9,-,N/A,,Clear,230,2013-10-03 12:56:00
6:56 AM,73.9,44.1,34,29.67,10.0,Variable,3.5,-,N/A,,Clear,0,2013-10-03 13:56:00
7:56 AM,77.0,45.0,32,29.68,10.0,NW,6.9,-,N/A,,Clear,310,2013-10-03 14:56:00
8:56 AM,80.1,43.0,27,29.69,10.0,Calm,Calm,-,N/A,,Clear,0,2013-10-03 15:56:00
9:56 AM,82.9,34.0,17,29.69,10.0,WSW,11.5,-,N/A,,Clear,250,2013-10-03 16:56:00
10:56 AM,84.9,28.0,13,29.67,10.0,SW,5.8,-,N/A,,Clear,230,2013-10-03 17:56:00
11:56 AM,88.0,32.0,14,29.65,10.0,SSW,11.5,-,N/A,,Clear,210,2013-10-03 18:56:00
12:56 PM,89.1,18.0,7,29.62,10.0,WSW,13.8,20.7,N/A,,Clear,240,2013-10-03 19:56:00
1:56 PM,90.0,19.0,7,29.60,10.0,WSW,17.3,-,N/A,,Clear,240,2013-10-03 20:56:00
2:56 PM,91.0,19.9,7,29.60,10.0,SW,11.5,19.6,N/A,,Clear,220,2013-10-03 21:56:00
3:22 PM,93.2,17.6,6,29.68,10.0,WSW,15.0,23.0,N/A,,Clear,250,2013-10-03 22:22:00
3:56 PM,91.0,18.0,7,29.59,10.0,West,13.8,25.3,N/A,,Clear,270,2013-10-03 22:56:00
4:56 PM,90.0,19.9,8,29.59,10.0,West,12.7,-,N/A,,Clear,260,2013-10-03 23:56:00
5:56 PM,88.0,23.0,9,29.60,10.0,WNW,10.4,-,N/A,,Clear,300,2013-10-04 00:56:00
6:56 PM,84.9,23.0,10,29.61,10.0,West,9.2,-,N/A,,Clear,280,2013-10-04 01:56:00
7:56 PM,82.9,25.0,12,29.64,10.0,West,9.2,-,N/A,,Clear,280,2013-10-04 02:56:00
8:37 PM,80.6,21.2,11,29.77,10.0,North,25.3,34.5,N/A,,Clear,10,2013-10-04 03:37:00
9:56 PM,77.0,14.0,9,29.74,10.0,North,24.2,32.2,N/A,,Clear,10,2013-10-04 04:56:00
10:56 PM,75.0,10.9,9,29.77,10.0,NNE,24.2,29.9,N/A,,Clear,20,2013-10-04 05:56:00
11:56 PM,73.0,6.1,7,29.81,10.0,NNE,24.2,32.2,N/A,,Clear,20,2013-10-04 06:56:00